Location: ??????
(55.2000°N, 38.3000°E)
Time: 08:21:32
(UTC+00:00)

Cosmos 2056 Rocket - Pass Details

Date: 15 November 2025
Orbit: 739 x 795 km, 74.0° (Epoch: 14 December)

Event Time Altitude Azimuth Distance (km) Brightness Sun altitude
Rises 03:43:37 0° 232° (SW) 3,292 6.4 -10.7°
Reaches altitude 10° 03:46:09 10° 240° (WSW) 2,365 5.6 -10.3°
Maximum altitude 03:51:13 40° 310° (NW) 1,152 4.0 -9.6°
Drops below altitude 10° 03:56:17 10° 20° (NNE) 2,359 6.0 -9.0°
Sets 03:58:50 0° 27° (NNE) 3,283 6.9 -8.6°
